Wind_Speed
9 10 9 9 8 7 8 9 9 10 9 8 8 8 8 7 7 6 5 4 5 5 5 4 4 4 5 5 4 4 3 2 2 1 2 5 7 8 11 14 16 16 16 18 19 21 24 26 27 27 27 26 25 26 26 25 25 24 23 22 21 20 18 17 17 17 17 16 15 14 14 14 14 14 15 16 17 18 20 22 23 23 23 24 25
6 8 10 10 9 8 9 10 11 11 10 9 9 9 9 7 7 7 6 5 5 5 5 5 5 5 5 6 5 4 3 3 2 2 1 2 6 9 11 13 16 17 16 18 19 21 23 25 26 26 27 26 25 26 26 25 25 24 23 22 21 20 18 17 16 16 16 15 14 13 13 12 12 13 14 15 16 17 19 21 21 22 22 23 24
8 8 10 10 9 9 10 11 12 12 11 10 10 11 10 8 7 7 6 6 5 5 5 5 5 5 5 5 5 4 3 3 2 2 2 1 5 9 11 13 17 18 17 18 20 21 22 24 26 26 26 26 26 26 26 26 25 24 23 22 21 20 19 17 17 16 15 15 14 12 12 11 11 12 13 14 15 16 18 20 20 21 22 23 23
11 10 10 11 10 10 11 13 14 13 12 12 12 11 10 9 7 7 7 6 6 5 5 4 4 4 4 4 5 4 4 3 3 2 1 1 5 9 12 14 16 19 18 18 20 21 22 24 25 26 27 27 26 26 26 26 25 24 23 22 21 20 19 18 17 16 15 14 13 12 11 10 10 11 12 13 14 16 17 18 19 20 20 21 22
12 11 11 12 12 12 12 14 14 14 13 13 13 12 10 8 6 6 7 7 6 5 4 4 3 3 3 4 4 4 3 3 2 2 1 0 4 9 13 15 16 18 18 18 19 21 22 24 26 26 27 27 26 26 26 26 25 24 24 23 22 22 20 18 17 16 15 14 13 11 10 10 9 10 11 12 13 14 16 17 18 19 19 20 21
12 12 13 13 13 13 13 14 15 14 14 13 13 11 8 7 6 6 7 6 5 4 3 3 3 2 3 3 3 3 3 2 2 3 3 2 3 8 13 15 16 17 18 18 18 21 23 23 25 26 27 27 27 26 26 26 26 25 24 23 23 22 21 19 18 16 15 14 12 11 9 9 9 9 10 10 12 13 14 15 17 18 18 18 20
13 13 13 13 13 13 13 14 15 15 14 13 12 9 7 6 6 6 6 5 5 4 3 2 2 2 2 3 3 3 3 2 3 4 4 4 4 7 13 15 16 16 17 18 18 20 22 23 25 27 28 28 27 27 26 26 26 25 24 24 24 23 22 20 18 17 15 14 12 11 9 9 8 8 8 9 10 11 12 13 15 16 17 17 19
14 14 13 13 13 13 13 14 15 14 14 12 10 8 6 6 6 6 5 5 4 4 3 2 2 2 2 2 3 3 2 2 3 4 4 5 6 9 12 15 15 15 16 17 18 20 22 23 25 27 29 28 28 27 26 26 26 25 25 24 24 23 22 21 19 17 16 15 13 12 10 9 8 7 8 8 8 9 10 12 13 15 16 16 17
14 14 12 11 12 12 12 13 14 13 12 10 8 7 6 6 6 5 5 5 4 3 3 2 2 2 2 2 2 2 2 2 2 3 4 6 8 10 11 13 14 15 15 15 16 18 21 23 25 27 28 27 27 27 27 27 26 26 25 24 24 23 23 22 20 18 17 16 14 12 10 9 7 7 7 7 6 7 9 10 12 13 15 15 16
14 13 11 9 10 11 11 12 13 12 11 9 7 7 6 6 6 4 4 4 4 3 3 2 2 2 2 2 2 2 3 2 2 2 4 6 8 10 11 11 12 13 14 15 15 17 21 23 25 26 26 27 28 28 28 27 27 27 25 24 24 24 24 22 21 20 18 17 15 12 10 9 7 6 5 5 5 6 7 8 10 12 13 14 14
13 11 9 8 8 9 10 10 11 11 10 9 8 7 6 6 5 3 3 3 3 3 2 2 2 2 2 2 2 2 3 2 1 2 3 5 7 9 10 10 11 12 13 14 15 16 20 23 25 26 27 28 29 29 28 28 27 28 26 25 24 24 24 23 22 20 19 17 15 13 11 9 7 6 4 4 4 5 5 6 8 10 12 13 13
11 9 8 8 8 7 8 8 10 10 10 10 9 7 7 6 4 3 2 2 2 2 1 2 2 2 3 3 3 3 3 3 2 2 3 5 6 7 8 9 10 11 12 13 14 16 18 22 25 27 28 28 29 30 29 28 28 28 27 25 25 25 24 24 23 22 21 18 15 14 12 9 7 6 4 3 3 3 4 5 6 8 10 11 12
11 10 9 8 7 7 7 8 10 10 10 10 9 8 7 5 4 3 2 1 1 1 1 1 2 2 3 3 4 4 4 4 4 4 4 5 6 6 6 7 9 10 11 12 14 15 17 20 24 27 29 29 29 30 30 29 28 28 27 26 26 26 25 24 24 23 21 19 17 15 13 10 7 6 5 3 1 1 2 3 4 6 8 10 11
10 9 8 8 8 7 7 8 10 10 10 10 9 8 7 5 4 3 1 1 1 0 0 0 1 2 3 4 4 4 5 5 6 6 5 6 7 8 8 8 9 10 11 12 13 15 16 18 22 27 29 30 30 30 31 30 29 28 28 27 26 26 25 25 25 24 22 19 18 15 13 10 7 7 5 4 2 1 1 2 3 4 6 8 9
9 9 9 8 8 8 8 8 9 10 10 10 9 8 7 5 4 2 0 0 0 0 1 1 1 2 3 4 4 4 5 5 6 7 7 7 7 7 8 9 9 10 11 12 12 14 17 17 19 25 29 30 31 31 31 31 30 29 28 27 26 25 25 26 25 25 23 21 19 15 13 11 8 8 7 6 4 3 2 2 3 3 5 7 8
11 10 10 9 9 9 8 9 10 11 10 10 9 7 6 4 2 1 1 1 1 1 2 2 3 3 4 3 2 3 4 5 6 7 7 7 7 7 7 8 9 11 12 12 11 13 16 17 18 23 28 31 32 32 31 32 31 30 28 27 26 25 25 25 26 26 24 23 21 17 14 11 10 10 9 8 6 5 5 4 4 4 4 6 7
11 11 10 10 9 9 9 10 12 12 11 10 8 6 4 3 2 1 1 1 2 2 4 5 5 4 4 3 2 2 3 4 5 6 7 6 6 6 6 7 9 10 11 11 10 12 15 16 18 21 26 31 32 32 32 32 32 30 29 27 27 26 25 25 26 26 25 24 23 19 17 14 12 12 12 10 9 7 7 6 5 5 5 5 7
11 11 9 8 9 9 10 10 12 12 11 10 7 5 3 3 2 1 1 2 4 4 7 8 7 5 4 3 2 2 2 3 4 5 5 5 5 6 6 7 8 10 11 11 10 10 13 15 16 20 25 29 32 32 32 32 31 31 29 28 27 26 25 26 26 26 25 26 24 21 19 17 15 15 14 13 11 10 9 8 7 6 5 5 6
10 9 7 7 8 8 8 9 10 9 10 9 6 5 4 3 2 1 1 3 5 7 9 8 6 6 5 3 2 2 3 3 4 5 4 4 4 5 5 5 7 9 10 11 10 9 11 14 15 18 22 27 30 32 32 32 31 30 30 29 28 27 27 26 26 27 27 26 24 23 21 19 18 17 16 15 14 12 11 10 8 8 7 6 6
9 8 6 4 5 6 6 7 7 8 9 8 5 5 5 4 3 1 2 4 6 9 9 7 6 7 6 4 3 2 3 4 4 4 4 3 3 3 4 4 5 7 9 10 11 10 10 13 15 16 20 24 28 31 32 32 32 30 30 29 28 28 28 27 27 29 28 26 25 24 22 21 19 19 19 17 16 14 12 11 10 9 8 7 7
9 9 6 4 5 5 5 5 6 8 9 8 7 6 7 4 3 4 4 6 7 9 9 7 7 7 7 4 3 3 2 4 5 5 5 4 3 3 3 3 4 5 7 10 11 11 10 12 15 16 18 22 26 29 31 32 32 30 29 29 29 29 28 27 28 30 28 25 25 24 23 22 21 21 20 18 17 16 14 12 11 10 9 8 7
9 7 6 6 5 4 3 4 7 8 7 7 7 8 9 6 3 4 5 7 8 9 8 7 7 8 8 4 5 5 3 4 5 5 5 5 5 3 3 3 3 3 5 8 9 10 10 11 14 16 17 19 23 27 29 31 31 30 29 28 29 29 28 28 29 31 29 25 25 25 24 23 21 22 21 19 18 17 15 14 12 11 10 9 8
8 6 7 10 8 7 6 6 7 8 6 6 7 7 8 7 5 5 5 7 9 11 9 6 7 8 8 5 7 8 5 5 5 4 5 6 6 5 4 3 3 3 4 6 7 8 10 12 14 16 16 17 20 24 27 30 31 31 30 28 29 28 28 29 29 30 29 27 26 26 25 24 23 23 22 20 19 18 17 16 14 13 12 11 10
6 6 8 9 9 8 7 7 7 7 6 5 7 6 6 7 6 5 5 5 8 11 10 8 8 7 8 7 7 9 7 6 5 5 5 6 6 5 5 5 4 3 3 4 4 6 9 11 13 15 16 16 18 22 25 28 30 31 30 29 28 28 28 28 29 31 29 28 27 26 26 25 24 24 23 22 20 20 19 18 16 15 14 13 12
8 10 9 7 7 6 5 6 6 6 6 6 8 7 7 6 6 6 5 6 7 10 13 12 9 6 7 9 7 8 7 4 4 5 6 6 6 5 5 5 4 4 3 2 2 4 7 8 11 13 14 15 15 19 23 26 29 31 30 29 28 28 28 29 30 31 29 28 28 27 28 27 26 26 24 24 22 21 20 19 18 17 16 14 13
10 11 10 9 10 9 8 6 7 6 6 7 6 7 9 7 8 7 6 8 9 12 14 12 11 7 5 10 10 8 6 4 5 7 6 4 5 5 5 5 5 4 2 1 2 4 5 6 8 11 12 13 13 16 20 24 28 31 30 28 28 28 28 29 29 31 30 29 29 28 29 28 28 28 26 25 24 23 22 21 20 19 17 16 14
11 10 8 11 12 11 9 8 9 9 9 9 6 7 10 9 10 9 8 9 11 16 14 12 15 9 4 9 11 10 7 5 7 10 6 0 1 4 5 5 6 7 3 1 3 5 4 4 6 8 10 11 11 14 17 21 25 29 30 29 28 28 28 28 28 29 30 29 30 30 30 30 30 29 28 27 26 25 24 23 21 20 19 17 16
11 9 8 11 12 11 10 10 11 10 11 11 6 7 10 10 10 10 12 10 10 14 14 14 16 9 3 7 9 9 9 7 9 11 7 2 1 1 4 5 5 7 5 2 4 7 6 4 5 8 9 8 9 11 14 17 21 25 28 29 29 29 28 27 26 27 28 28 30 31 30 30 31 30 29 28 28 27 25 24 22 21 20 19 18
10 9 8 9 10 11 10 10 10 9 11 11 8 8 10 10 9 10 13 11 10 12 14 16 16 12 9 8 8 8 9 8 9 10 8 4 2 2 3 3 4 5 5 3 5 8 8 5 6 9 9 8 8 9 10 12 17 21 24 26 28 29 28 26 24 24 25 27 28 29 29 29 30 31 30 29 29 28 26 25 23 22 21 20 19
9 9 9 9 10 10 9 7 8 7 8 11 11 10 9 11 12 11 11 13 13 14 15 15 14 13 13 11 10 9 9 8 9 12 12 8 5 3 4 3 3 3 4 4 4 8 8 7 8 10 10 10 9 8 8 9 13 17 20 22 24 27 27 26 24 22 22 24 25 26 27 28 29 30 31 30 29 29 27 25 24 23 22 21 20
11 11 11 10 8 8 7 6 7 8 8 10 12 13 12 14 16 15 15 18 18 16 15 14 13 13 13 12 10 9 9 9 10 12 13 10 6 3 6 5 5 5 7 8 6 7 8 8 9 10 11 12 11 10 10 10 11 13 17 20 21 24 24 24 24 21 20 22 23 23 25 27 28 29 30 30 29 29 28 26 25 24 23 22 21
11 11 11 7 6 7 7 8 9 10 12 12 11 13 14 15 16 16 16 18 16 13 14 13 12 13 11 11 11 10 9 10 11 12 12 8 5 6 9 8 8 7 8 9 8 8 9 10 9 9 11 11 11 11 12 12 12 11 12 15 18 21 24 24 23 22 19 19 21 23 25 25 27 28 29 30 30 29 28 27 26 25 24 23 22
10 10 9 6 6 7 7 9 10 11 13 14 12 13 13 13 15 14 14 15 11 11 13 13 13 13 10 11 12 11 10 9 10 12 13 11 8 11 12 9 10 10 9 8 10 11 10 11 11 10 11 11 11 11 11 12 13 12 11 11 13 17 22 25 25 24 21 20 22 24 25 26 26 28 29 29 30 29 29 28 27 26 25 24 23
11 11 9 7 7 5 6 8 11 12 12 13 12 12 12 12 13 13 14 12 10 11 11 10 12 12 10 11 12 11 10 9 10 13 16 14 11 13 13 12 14 14 13 10 11 12 12 13 13 11 12 12 12 13 12 11 11 11 10 11 12 13 17 22 24 25 25 24 23 23 24 26 26 27 28 29 30 30 30 29 28 27 26 25 24
13 10 9 8 5 4 6 8 10 11 10 11 11 11 10 10 11 11 11 10 11 12 13 11 11 11 10 12 13 11 11 11 11 13 16 15 13 13 14 14 15 17 17 14 12 13 14 16 16 15 14 14 14 15 14 12 11 11 11 12 13 14 16 18 20 23 26 26 25 25 26 26 26 26 27 29 30 31 31 30 29 28 27 26 25
14 10 9 7 3 4 6 6 8 9 8 9 9 9 8 8 9 9 10 11 12 12 13 13 10 11 13 13 13 12 12 12 12 13 17 17 13 14 15 14 16 18 20 18 16 16 16 15 16 16 15 16 17 16 13 9 10 11 12 12 13 15 17 18 19 21 24 25 26 27 26 26 26 27 27 28 28 29 31 31 30 29 28 27 27
13 10 9 7 4 5 5 5 7 7 8 8 8 8 7 6 6 7 9 11 12 12 14 14 11 12 13 12 12 12 12 13 12 14 18 19 15 15 16 15 17 20 21 21 20 20 19 15 14 15 15 17 18 16 10 5 6 7 8 10 12 15 18 20 21 22 23 23 25 26 26 25 24 25 27 28 28 27 29 30 30 30 29 28 28
12 11 10 9 6 5 4 3 5 6 8 9 9 9 9 8 8 6 7 10 12 14 16 15 13 13 12 11 11 11 13 13 12 14 17 19 17 16 17 17 18 20 22 23 22 21 20 18 16 16 16 16 17 16 12 7 5 5 5 7 9 13 17 20 21 23 24 24 24 24 25 25 22 21 24 28 29 29 28 28 28 29 30 30 30
13 12 12 10 7 5 4 3 3 6 8 10 11 11 11 12 12 11 8 7 10 13 16 16 15 14 12 11 10 9 11 12 13 14 16 15 13 14 17 19 20 20 22 23 21 21 20 19 17 16 17 16 16 16 14 11 9 9 8 8 9 11 15 17 20 22 26 27 26 26 25 25 24 23 22 23 27 29 30 30 29 28 27 28 30
14 15 14 11 7 6 5 3 2 5 7 9 11 12 12 14 16 15 12 9 8 8 12 14 15 16 15 14 12 11 12 14 16 17 16 13 10 11 14 17 19 20 21 21 21 20 19 19 18 17 17 17 15 15 16 15 14 14 12 12 11 13 14 15 17 20 24 28 28 29 29 27 26 26 24 22 24 27 29 30 31 31 29 28 28
18 17 15 12 9 8 6 4 3 4 6 8 11 12 14 15 17 18 15 10 9 7 7 9 12 15 16 15 15 14 16 18 19 19 19 19 17 15 15 14 15 16 19 20 19 18 18 17 17 17 16 16 15 15 16 16 14 14 13 13 13 15 17 17 17 18 22 27 28 28 28 29 27 26 25 23 22 25 27 28 29 30 31 30 29
20 16 15 15 12 11 9 6 5 4 5 7 10 12 14 15 18 19 18 13 10 8 5 6 8 10 13 14 14 15 16 17 18 18 20 23 22 20 20 17 15 14 15 16 17 17 16 15 16 16 15 14 13 13 14 13 12 13 13 14 15 16 18 17 15 14 17 23 28 28 27 27 29 29 26 24 22 22 25 27 28 28 30 31 31
19 15 15 16 16 14 10 8 6 5 4 6 8 10 11 14 16 17 18 15 11 9 6 7 7 7 9 9 10 11 11 11 12 14 16 19 20 20 20 19 18 16 14 14 14 15 15 15 16 16 14 12 12 12 13 13 14 15 15 16 17 17 16 15 14 14 14 15 20 27 28 25 26 28 29 27 25 24 25 26 26 26 27 29 30
19 17 18 19 19 16 9 8 7 5 5 6 7 9 9 11 14 16 17 13 8 8 8 8 7 7 7 6 7 6 6 6 6 7 9 11 13 14 14 15 17 18 17 16 15 14 14 14 16 15 14 13 13 13 14 14 15 16 17 17 17 17 17 16 15 14 14 12 12 18 23 23 24 27 27 27 27 25 25 25 25 25 26 27 28
20 21 23 22 19 15 10 8 8 6 5 6 8 10 10 11 13 15 15 13 8 7 7 7 7 6 6 5 5 4 3 3 3 3 3 4 6 7 8 9 11 14 16 17 17 16 14 13 13 13 11 11 12 13 13 14 15 16 16 17 17 16 16 16 15 14 13 12 10 10 12 16 22 27 26 25 27 26 24 24 25 25 25 25 26
20 23 29 25 17 16 11 9 11 7 5 7 9 10 11 11 13 13 13 13 9 7 6 6 6 4 4 4 3 3 3 3 3 2 2 2 3 4 5 5 6 8 11 12 14 14 14 12 11 10 10 9 10 10 11 13 15 15 14 15 15 15 16 16 16 14 12 11 11 10 10 11 12 21 26 27 27 27 26 26 25 25 25 25 25
19 23 31 29 21 21 15 12 13 10 7 7 9 11 11 12 13 13 12 13 10 7 5 5 5 4 4 4 4 4 4 4 4 3 2 2 2 2 2 2 4 5 5 6 8 10 11 10 9 9 9 9 9 9 11 12 11 12 12 12 13 15 16 16 14 13 12 11 11 11 10 9 9 9 16 23 27 28 29 30 29 27 27 27 27
24 28 33 34 28 24 18 15 16 14 9 7 9 11 11 12 13 12 12 12 10 7 5 5 5 5 6 6 6 6 6 5 5 5 4 3 2 2 1 1 1 2 3 4 5 5 6 6 5 5 5 6 7 8 11 11 10 11 11 11 12 12 12 11 10 10 11 11 10 10 10 9 8 8 8 13 19 23 25 28 30 29 29 29 28
30 33 34 35 31 26 21 18 18 16 9 7 10 11 11 11 11 11 11 11 10 8 7 6 6 7 7 7 7 7 7 7 6 6 5 4 4 2 2 1 1 1 1 2 2 2 2 2 1 2 2 3 5 6 8 10 10 11 10 10 10 10 10 9 8 8 9 9 9 9 10 8 7 7 7 8 12 18 21 23 25 28 29 30 29
30 34 37 39 36 29 25 20 19 17 11 9 11 11 11 11 11 11 10 11 11 10 9 7 7 7 7 7 6 6 6 6 5 5 4 4 4 3 3 2 2 1 1 1 1 1 1 1 1 1 1 2 3 5 6 7 8 9 9 10 9 9 10 9 8 8 8 8 7 8 10 11 10 8 7 7 8 13 19 21 22 24 27 27 26
31 33 40 46 41 32 27 24 21 18 14 13 13 12 12 11 10 11 11 11 12 11 10 7 5 5 4 3 2 2 3 3 2 2 2 2 2 2 2 3 3 3 3 3 4 4 4 4 4 3 2 2 2 3 4 5 6 7 8 9 9 9 9 9 9 8 8 8 8 9 10 12 12 11 10 9 7 7 13 19 21 21 24 25 23
Wind_Direction
205 203 210 208 206 205 206 206 212 212 215 208 200 191 178 174 170 163 155 135 113 95 87 76 72 80 82 78 70 66 60 61 48 27 99 119 140 149 154 164 171 169 162 158 158 162 165 166 165 166 165 165 164 163 162 160 158 156 156 157 154 152 150 146 140 135 129 125 120 115 110 103 96 88 79 72 67 64 62 60 57 53 52 51 50
208 213 210 205 205 202 208 208 212 215 213 205 198 192 186 186 180 172 163 138 121 99 85 76 70 74 76 76 76 70 56 51 33 352 303 145 152 159 160 166 172 175 169 164 163 164 168 170 169 169 168 168 167 166 166 164 162 161 160 161 160 158 155 152 149 144 137 133 128 122 115 107 98 89 80 72 66 64 61 59 56 53 51 50 50
225 226 213 208 203 202 207 209 214 215 211 205 199 196 194 193 185 176 165 143 122 103 90 79 74 73 72 76 79 78 67 56 39 3 310 201 171 168 167 170 175 178 176 170 167 168 170 173 173 173 172 171 170 170 169 168 167 165 165 164 164 163 162 161 158 152 144 139 134 127 119 110 100 90 81 73 67 64 60 58 56 53 50 49 48
227 226 218 211 204 205 206 210 214 213 210 206 201 200 200 195 186 173 160 145 123 106 95 82 75 71 73 79 84 87 75 56 40 21 334 232 186 178 174 174 176 180 180 177 173 172 173 176 177 176 176 175 174 173 173 172 171 170 169 167 168 169 169 168 164 159 151 145 140 131 121 110 100 91 82 74 68 64 61 57 55 54 51 48 47
227 227 221 213 208 207 207 211 212 211 209 205 204 203 201 193 180 166 153 141 124 109 96 80 70 68 78 89 94 90 71 52 38 46 51 161 186 183 178 174 175 179 182 182 178 177 176 178 180 180 179 178 177 176 176 176 175 174 172 170 172 175 175 173 170 165 159 154 146 138 126 111 101 91 82 73 68 64 60 57 54 53 50 47 46
226 226 220 215 211 209 209 211 212 212 209 206 206 206 201 183 167 157 148 137 123 113 101 85 74 72 85 94 94 85 72 57 50 61 68 85 151 176 175 172 173 175 180 184 183 182 181 180 182 183 182 182 180 179 179 179 179 178 175 174 177 179 178 177 175 171 167 163 153 145 132 114 105 94 81 72 66 63 59 57 53 51 50 47 45
218 220 219 215 211 209 209 211 212 211 209 207 206 205 192 168 158 153 147 139 128 120 110 96 85 93 97 93 89 87 86 79 72 71 73 86 110 152 166 168 170 173 177 183 186 187 185 183 183 186 186 184 183 182 182 182 182 181 179 179 181 182 182 181 179 177 174 171 163 153 139 120 111 99 86 73 65 61 59 57 54 51 49 47 44
212 214 216 216 214 210 208 210 212 211 209 207 205 199 177 160 154 152 149 142 133 125 118 112 108 105 100 94 95 98 102 104 99 85 86 99 107 129 153 163 166 170 174 180 188 190 189 187 186 188 188 187 186 185 184 185 185 184 184 183 184 184 185 184 182 181 179 179 173 161 146 127 117 107 92 77 67 62 58 56 54 50 48 47 43
209 211 212 215 215 211 208 209 210 209 207 205 204 192 170 157 151 152 150 142 132 124 123 120 115 104 99 93 101 110 116 129 123 99 104 116 117 121 138 156 164 169 173 178 187 193 193 192 192 190 189 189 189 188 187 187 187 187 187 187 187 186 188 187 184 183 183 184 178 169 153 132 125 120 102 87 76 66 58 53 52 49 48 46 43
204 208 210 209 210 209 208 209 209 207 203 202 199 188 172 159 152 154 152 144 130 126 130 124 118 108 105 104 113 125 134 144 140 125 127 128 127 127 132 145 159 169 173 178 185 193 197 196 196 193 189 190 192 191 190 189 189 189 190 190 191 189 190 190 188 186 187 188 181 175 162 141 142 137 118 103 86 74 61 51 50 48 47 45 42
205 210 209 203 202 202 204 207 209 205 203 202 196 188 175 165 158 162 162 144 130 132 136 126 121 124 127 132 139 151 158 162 168 159 150 145 140 140 142 146 156 167 175 181 185 192 199 200 199 196 193 192 194 194 192 191 191 191 191 193 194 193 192 192 192 191 192 191 184 180 169 154 160 159 141 118 90 77 65 50 46 46 45 44 42
211 212 206 199 197 198 201 204 206 203 203 202 197 188 181 178 176 178 174 141 127 131 125 126 138 154 163 166 171 179 179 186 209 198 181 176 167 158 157 160 165 171 180 188 192 196 199 203 203 201 197 195 195 196 194 193 193 193 193 194 196 196 195 196 196 196 196 193 189 187 176 164 174 176 160 134 99 77 59 45 39 41 44 43 41
212 209 201 198 196 199 200 198 199 199 199 200 196 191 191 192 195 198 179 131 104 87 59 135 162 184 189 189 195 198 199 205 214 217 211 204 197 192 187 181 181 184 190 196 202 204 201 203 205 205 201 198 198 198 197 195 194 195 195 196 198 199 199 199 200 201 200 197 195 191 181 173 185 190 174 170 144 76 51 40 31 34 41 43 40
204 203 198 200 203 204 203 194 193 197 196 196 193 192 195 196 203 204 173 138 98 118 125 176 213 223 213 207 208 210 213 216 219 225 229 226 218 213 209 203 199 199 202 205 208 210 206 204 205 207 204 201 201 200 199 197 196 196 197 198 199 200 202 203 205 206 205 204 203 196 185 179 193 204 193 199 212 255 337 4 8 21 31 39 38
194 196 198 202 209 209 204 197 198 200 198 196 195 195 197 201 210 210 161 18 31 232 210 240 269 262 244 227 219 216 218 223 227 230 235 240 235 227 221 217 214 210 209 212 214 213 210 206 206 207 206 204 203 202 201 200 198 197 199 200 200 201 204 206 209 211 208 210 212 206 197 192 205 216 211 216 230 261 286 317 328 354 16 30 34
191 191 195 200 212 216 209 205 206 205 204 206 206 206 209 218 231 289 356 351 292 283 287 299 315 294 268 257 244 227 223 226 233 236 235 242 249 246 238 228 225 220 214 215 219 218 211 206 206 206 206 206 205 204 203 202 201 200 201 201 201 202 205 208 211 214 213 214 216 214 213 211 223 230 227 231 242 264 284 301 305 322 353 16 24
190 190 193 200 213 216 208 208 211 209 211 212 212 211 219 239 254 345 4 311 287 288 306 321 330 311 275 274 278 249 232 228 236 238 231 241 261 266 258 243 237 230 221 220 226 224 214 207 205 205 205 206 206 205 205 204 202 202 203 204 203 204 207 210 213 216 217 219 217 216 220 223 232 239 240 243 249 262 279 292 296 302 329 358 12
188 190 188 199 213 214 211 214 218 215 213 208 205 202 207 230 220 27 345 293 292 295 313 327 328 303 272 265 277 292 254 233 235 234 231 250 278 282 272 258 248 239 230 226 233 233 220 211 206 205 204 205 206 206 206 205 204 203 204 206 206 206 208 212 215 216 220 224 222 219 223 229 235 242 246 249 254 262 273 283 290 293 307 335 355
182 193 189 192 201 207 213 215 218 219 216 204 192 188 193 215 205 128 347 295 294 302 321 330 312 283 271 256 253 297 277 248 235 231 238 261 287 289 278 272 261 247 236 231 238 242 229 218 210 207 205 204 206 206 206 206 205 204 205 207 208 209 211 215 217 218 220 222 225 225 227 231 237 244 248 252 257 263 269 277 284 286 293 315 337
173 191 192 188 188 196 212 211 211 218 221 214 210 212 207 222 252 272 318 301 300 310 325 326 296 275 267 254 244 265 272 270 254 238 245 257 287 310 297 291 281 260 242 232 237 243 238 227 216 212 208 205 205 206 207 207 206 205 206 207 209 211 213 217 220 221 221 221 225 229 231 234 238 243 248 252 258 262 266 270 276 280 283 296 320
182 195 183 181 189 195 204 205 215 225 229 229 224 219 214 226 277 292 307 303 307 319 328 321 299 282 276 273 268 262 239 264 267 256 254 257 279 341 352 328 304 278 250 236 235 239 241 233 220 216 213 208 206 206 207 208 207 207 208 208 210 212 214 218 223 225 223 222 226 229 232 236 239 243 247 252 256 260 261 263 268 272 275 282 301
198 201 187 190 196 209 220 226 233 238 239 234 219 198 202 213 240 260 288 295 307 321 327 321 306 297 294 284 261 256 236 255 270 269 272 277 283 315 7 2 327 295 265 250 244 245 247 238 223 215 213 210 208 207 207 208 208 207 209 210 211 213 214 218 224 227 224 224 228 230 232 235 238 242 246 250 252 255 256 257 260 263 268 274 286
200 195 203 196 184 199 209 226 238 240 241 238 229 208 207 217 217 234 272 292 307 313 319 320 298 289 284 260 246 251 246 262 280 295 304 301 296 303 303 319 328 313 291 271 258 259 258 247 228 216 212 210 210 209 207 207 206 206 208 210 213 214 215 219 225 229 226 226 229 230 233 234 236 241 244 247 249 251 253 254 255 257 262 268 276
194 184 205 193 173 186 194 213 225 222 231 252 255 244 233 233 227 234 260 292 311 307 308 303 282 283 277 252 243 250 245 249 277 303 312 305 302 312 301 297 307 308 319 297 275 277 271 254 231 217 214 212 212 213 209 207 205 204 205 208 212 215 217 220 226 230 228 228 229 230 234 235 235 238 241 244 246 248 249 251 252 255 258 264 270
194 184 196 194 178 195 206 232 240 218 218 244 262 263 253 248 246 256 272 291 309 300 298 293 274 278 277 261 255 263 268 268 285 293 299 306 302 311 306 298 298 296 322 329 293 282 279 262 231 217 218 216 215 216 212 209 206 203 203 205 210 214 217 221 226 230 230 230 231 231 233 234 235 236 238 241 243 246 247 249 251 253 256 261 266
204 197 200 202 196 208 218 232 250 250 241 237 247 253 254 263 256 260 281 285 294 287 289 291 267 249 261 274 273 267 266 277 296 287 285 316 313 296 282 286 297 284 258 191 252 263 271 263 232 220 226 226 221 221 216 212 210 207 203 202 206 211 216 221 226 231 231 232 232 231 232 232 233 235 237 239 241 244 246 247 249 252 255 258 261
209 211 207 199 194 206 221 225 242 259 264 257 256 255 262 278 267 267 279 282 290 280 277 277 259 240 235 272 278 275 267 267 277 274 269 13 322 276 274 280 280 270 250 185 257 257 249 246 238 230 232 233 227 223 220 218 216 214 209 204 205 209 214 218 224 230 232 233 233 232 231 230 231 233 235 237 239 241 243 245 247 249 252 255 257
209 217 212 203 196 205 225 231 240 253 266 271 276 280 289 293 273 277 286 286 285 275 279 282 269 264 264 263 274 281 278 278 273 274 290 355 119 262 296 285 264 270 278 265 252 249 237 226 241 245 240 239 236 227 225 224 220 218 216 211 209 209 212 215 219 227 232 235 236 233 231 230 229 231 233 236 238 240 241 243 245 248 250 253 254
206 211 214 215 211 221 238 240 240 245 262 276 278 282 297 293 277 285 286 274 258 255 271 285 286 297 301 284 280 266 256 262 257 256 272 274 203 251 285 253 230 266 277 258 248 249 243 225 229 241 241 239 238 237 239 234 224 220 219 217 215 213 212 213 216 224 232 237 238 236 233 231 230 230 231 233 237 239 240 241 243 246 249 251 252
207 213 222 229 230 237 245 244 253 259 265 276 278 276 270 264 267 272 260 248 245 245 250 261 274 285 287 281 277 267 255 248 234 227 231 220 198 250 272 238 216 241 250 236 230 236 234 225 225 230 232 232 228 229 240 241 229 222 219 219 220 219 217 215 215 222 232 238 241 242 240 236 234 233 231 232 235 238 239 240 241 243 246 248 250
222 225 233 239 243 252 257 261 280 285 278 277 283 286 277 268 267 260 244 240 242 242 238 240 248 256 266 270 265 264 260 244 231 225 221 201 174 246 263 251 240 228 240 238 220 223 225 223 227 226 222 225 227 225 228 232 229 224 222 223 222 221 222 221 219 221 230 240 243 246 248 243 240 238 235 233 234 236 238 238 239 240 242 244 246
226 220 228 227 238 261 280 291 296 293 291 290 286 287 284 280 275 268 257 248 241 230 226 230 242 248 255 264 261 257 254 243 241 239 236 220 191 237 240 240 250 244 246 245 227 227 228 225 226 224 218 221 229 230 229 226 223 225 223 222 222 221 223 225 226 225 228 238 244 245 250 251 248 245 242 238 235 236 237 237 237 238 239 240 242
224 220 221 207 233 261 288 294 298 298 299 301 295 289 285 281 278 272 263 255 244 226 221 223 235 243 246 259 262 255 247 242 247 251 253 247 226 244 252 257 266 262 258 256 243 237 239 237 224 209 210 216 224 229 231 228 223 225 224 224 227 227 227 228 230 230 229 234 242 244 248 253 253 250 245 241 238 236 236 236 237 237 239 239 239
222 223 215 210 236 267 300 297 301 306 309 310 306 301 292 282 275 264 260 257 241 230 227 223 231 238 241 251 257 254 248 240 238 242 248 248 236 245 260 263 263 262 259 256 253 250 254 255 243 222 217 220 229 235 232 228 226 226 228 231 234 239 238 237 237 236 232 231 235 241 246 249 252 252 247 243 241 239 237 237 237 237 238 239 239
224 221 210 219 242 278 304 307 312 316 318 317 313 311 302 285 273 261 260 251 230 224 228 231 233 239 242 246 252 253 247 241 237 238 243 246 240 246 255 258 260 264 264 258 255 259 262 265 263 253 237 229 237 241 232 226 231 231 228 228 229 235 239 241 244 243 238 234 233 238 245 249 251 251 248 245 243 241 241 239 238 238 238 239 239
227 224 217 227 245 273 295 312 319 323 322 322 322 318 314 297 281 263 250 240 230 223 226 234 231 236 241 243 249 246 239 241 246 250 254 253 249 254 258 259 264 267 268 264 258 261 267 273 274 266 249 240 244 247 243 236 242 239 227 227 230 235 239 240 244 246 243 241 237 237 242 249 253 252 249 246 246 245 244 242 241 240 239 240 240
230 231 231 239 253 265 284 312 319 326 328 333 337 331 331 326 309 276 251 242 235 223 225 235 231 233 239 244 249 247 243 246 250 255 261 261 257 259 260 261 266 266 267 266 262 263 267 275 280 274 260 253 251 251 251 240 243 246 233 237 241 243 247 245 244 244 244 245 243 241 241 244 251 257 254 248 248 247 245 245 243 242 242 242 242
235 236 239 247 252 256 272 310 318 329 337 343 347 346 351 353 349 327 278 251 240 229 229 234 234 236 238 244 252 255 254 253 254 254 256 260 261 262 260 259 263 263 264 263 263 262 264 269 272 269 265 259 255 254 254 240 239 260 254 257 258 255 255 255 253 249 245 244 244 245 244 242 244 252 257 255 253 251 249 248 245 243 242 243 244
242 240 242 247 240 229 246 288 316 329 338 344 350 355 357 356 358 354 332 284 254 240 236 234 236 241 238 237 244 251 254 254 256 252 249 257 259 255 253 256 260 260 260 260 259 258 260 266 265 261 259 256 257 260 258 256 271 284 281 280 282 276 273 272 270 260 251 246 243 244 245 245 242 241 247 255 256 256 255 253 250 247 245 245 246
243 245 242 238 225 213 231 256 300 323 332 337 346 351 351 355 357 357 349 323 295 264 248 237 234 242 243 241 246 254 256 254 254 250 251 254 245 246 254 257 258 255 255 255 254 253 256 261 259 254 254 254 258 261 260 263 272 275 278 284 285 284 285 284 280 269 257 249 245 245 244 245 246 243 241 245 252 257 258 257 254 252 251 249 248
241 246 235 224 219 215 228 245 264 298 319 326 335 342 349 356 355 354 350 326 302 287 269 251 238 240 244 243 245 252 255 256 256 256 259 259 255 258 262 260 257 252 250 249 249 251 252 252 251 249 252 254 254 256 259 263 264 265 274 285 286 284 286 289 287 275 261 251 246 246 244 242 244 245 242 240 245 254 259 261 258 255 255 253 251
241 243 220 213 219 218 229 252 256 262 295 315 329 339 348 353 351 349 345 330 310 302 287 274 260 248 247 246 247 250 252 256 258 258 259 260 260 257 253 257 264 259 251 247 246 247 246 242 242 244 247 250 250 253 254 254 259 269 277 284 289 288 286 287 287 282 273 259 250 246 244 242 242 242 241 240 243 248 255 261 260 257 256 255 253
237 239 212 207 219 224 236 254 252 249 273 297 316 330 341 346 348 345 338 332 322 317 304 288 282 267 262 258 259 261 259 259 256 253 252 253 256 254 250 253 258 259 257 253 250 248 243 239 242 246 249 251 253 254 252 252 261 273 280 286 289 289 287 283 278 279 283 277 260 248 242 241 242 242 240 239 243 246 249 255 257 255 256 258 255
229 228 211 210 221 231 252 258 240 236 255 275 294 313 329 336 340 340 335 330 312 304 304 295 290 283 284 281 277 279 276 271 261 252 246 243 248 251 251 250 252 256 259 258 256 252 247 243 246 250 251 254 256 254 254 258 262 269 278 283 282 283 284 281 279 278 277 285 286 258 243 239 240 243 242 238 240 245 248 250 251 253 253 256 257
233 227 212 210 221 237 262 257 235 226 242 269 286 300 314 323 332 338 334 326 302 289 299 298 296 292 292 295 290 290 291 289 285 269 251 240 241 243 244 244 248 251 252 253 253 254 254 250 248 248 247 251 255 255 256 259 260 265 272 276 275 276 279 282 283 281 273 275 293 290 272 258 245 241 241 239 238 240 243 243 242 246 249 251 257
238 232 213 208 226 247 259 246 240 242 240 267 282 289 302 313 323 332 330 324 307 287 300 308 307 304 296 296 295 297 308 309 309 302 280 257 250 247 243 234 237 243 246 249 248 250 253 249 246 240 236 239 244 251 252 252 258 263 264 267 270 269 274 280 279 277 272 268 276 289 302 302 269 245 239 240 241 241 242 242 238 241 247 250 253
242 236 215 213 237 253 255 242 245 257 246 258 279 283 294 307 315 325 326 326 322 305 310 324 324 325 313 303 303 307 312 312 315 311 302 289 267 269 266 229 220 228 233 235 233 238 243 245 244 238 233 231 229 233 234 237 249 255 256 264 269 267 270 274 273 272 269 266 273 280 291 313 320 284 251 243 242 244 247 245 242 242 246 250 250
248 242 219 219 240 252 255 245 241 251 246 248 274 277 287 301 308 318 323 325 327 317 306 311 315 313 303 298 299 300 303 304 305 301 292 289 279 278 287 249 203 202 203 210 220 226 232 239 243 246 243 232 226 221 218 223 233 241 247 259 261 257 261 269 273 272 266 266 271 275 284 297 311 321 304 265 248 247 251 248 244 243 245 248 249
240 239 221 223 240 244 247 246 236 241 240 240 267 273 279 292 297 307 318 321 321 312 300 291 289 293 290 290 293 294 299 301 297 291 285 281 279 283 295 315 22 123 161 188 219 221 220 221 218 245 247 229 232 227 223 229 236 238 238 244 247 243 245 257 265 265 265 271 270 262 268 278 281 290 308 301 267 250 250 251 247 245 246 249 250
234 230 222 229 242 239 238 242 235 236 239 241 256 265 270 276 284 297 308 315 316 311 306 296 284 289 292 294 298 301 306 307 301 293 284 277 275 278 287 302 327 348 2 354 321 324 319 321 333 315 274 228 237 240 243 247 250 252 251 252 253 247 248 256 261 264 263 263 261 258 259 260 263 266 276 303 294 258 248 248 250 249 249 251 253
244 235 228 230 233 230 232 234 234 237 240 246 249 254 262 264 271 287 294 305 312 311 313 311 297 298 305 308 322 327 323 321 325 324 312 308 298 290 294 307 321 331 334 335 334 334 335 335 336 335 327 299 271 259 261 261 260 265 266 268 269 261 261 266 266 270 268 262 264 269 271 268 266 269 273 287 303 278 250 244 245 248 250 250 250
Height
3139 3140 3141 3142 3143 3143 3144 3144 3145 3145 3146 3147 3147 3148 3148 3148 3148 3148 3148 3149 3149 3149 3150 3150 3151 3151 3151 3151 3151 3151 3151 3152 3152 3152 3152 3153 3154 3154 3154 3155 3156 3157 3158 3159 3160 3161 3162 3163 3164 3165 3166 3167 3168 3169 3170 3171 3172 3173 3174 3176 3177 3178 3179 3179 3179 3180 3180 3180 3180 3180 3180 3181 3181 3181 3180 3180 3180 3179 3179 3178 3178 3177 3176 3175 3174
3139 3139 3140 3141 3142 3142 3143 3144 3144 3145 3146 3146 3147 3148 3148 3148 3148 3148 3148 3149 3149 3149 3150 3150 3151 3151 3152 3152 3152 3151 3151 3151 3151 3151 3152 3153 3153 3154 3154 3155 3156 3157 3158 3159 3160 3161 3162 3163 3164 3165 3166 3167 3169 3170 3171 3172 3173 3174 3175 3176 3177 3178 3179 3180 3180 3180 3180 3181 3181 3181 3181 3181 3181 3181 3181 3181 3181 3180 3180 3179 3179 3178 3177 3176 3175
3138 3139 3140 3140 3141 3141 3142 3143 3144 3145 3145 3146 3147 3147 3148 3148 3148 3148 3148 3149 3149 3150 3150 3151 3151 3151 3152 3152 3152 3152 3151 3151 3151 3151 3151 3152 3152 3153 3154 3154 3155 3156 3157 3158 3160 3161 3162 3163 3164 3165 3166 3167 3169 3170 3171 3172 3173 3174 3175 3176 3178 3179 3180 3180 3180 3181 3181 3181 3182 3182 3182 3182 3182 3182 3182 3182 3181 3181 3180 3180 3180 3179 3179 3178 3177
3137 3138 3139 3139 3140 3141 3142 3143 3143 3144 3145 3146 3147 3147 3147 3148 3148 3148 3148 3149 3149 3150 3150 3151 3152 3152 3152 3152 3152 3152 3152 3151 3151 3151 3151 3151 3151 3152 3153 3153 3154 3156 3157 3158 3159 3160 3161 3163 3164 3165 3166 3167 3168 3169 3171 3172 3173 3174 3175 3177 3178 3179 3179 3180 3181 3181 3182 3182 3183 3183 3183 3183 3183 3183 3183 3182 3182 3182 3181 3181 3181 3180 3180 3179 3178
3136 3137 3138 3139 3139 3140 3141 3142 3143 3144 3145 3146 3146 3147 3147 3148 3148 3149 3149 3149 3150 3150 3151 3152 3152 3152 3152 3152 3152 3152 3152 3152 3151 3151 3151 3150 3150 3151 3152 3153 3154 3155 3156 3158 3159 3160 3161 3162 3163 3164 3166 3167 3168 3169 3171 3172 3173 3174 3176 3177 3178 3178 3179 3180 3181 3182 3182 3183 3183 3183 3184 3184 3184 3184 3184 3183 3183 3182 3182 3182 3182 3181 3181 3180 3179
3135 3136 3137 3138 3138 3140 3141 3142 3143 3144 3145 3145 3146 3147 3147 3148 3148 3149 3149 3150 3150 3151 3152 3152 3153 3153 3152 3152 3152 3153 3152 3152 3152 3151 3151 3150 3150 3150 3151 3152 3153 3154 3156 3157 3158 3160 3161 3162 3163 3164 3165 3166 3168 3169 3170 3172 3173 3174 3176 3177 3177 3178 3179 3180 3181 3182 3183 3183 3184 3184 3184 3184 3184 3185 3184 3184 3184 3183 3183 3183 3182 3182 3182 3181 3180
3134 3135 3136 3137 3138 3139 3140 3141 3143 3144 3144 3145 3146 3147 3147 3148 3148 3149 3150 3150 3151 3152 3152 3153 3153 3153 3153 3153 3153 3153 3153 3153 3152 3152 3151 3151 3150 3150 3150 3151 3152 3154 3155 3157 3158 3159 3160 3161 3162 3163 3165 3166 3167 3169 3170 3172 3173 3174 3175 3176 3177 3178 3179 3180 3181 3182 3183 3184 3184 3184 3185 3185 3185 3185 3185 3185 3184 3184 3184 3183 3183 3183 3183 3182 3182
3133 3134 3136 3136 3137 3139 3140 3141 3142 3143 3144 3145 3146 3147 3147 3148 3148 3149 3150 3150 3151 3152 3152 3153 3153 3153 3153 3153 3153 3153 3153 3153 3153 3153 3152 3152 3151 3150 3150 3151 3152 3153 3154 3156 3157 3158 3160 3161 3161 3162 3164 3166 3167 3169 3170 3171 3173 3174 3175 3176 3177 3178 3179 3180 3181 3182 3183 3183 3184 3184 3185 3185 3185 3186 3186 3186 3185 3185 3185 3184 3184 3184 3183 3183 3183
3133 3134 3135 3136 3137 3139 3140 3141 3142 3143 3144 3145 3146 3146 3147 3147 3148 3149 3149 3150 3151 3151 3152 3152 3153 3153 3153 3153 3153 3153 3153 3153 3153 3153 3153 3152 3152 3151 3151 3151 3152 3153 3154 3155 3156 3158 3159 3160 3161 3162 3164 3166 3167 3168 3169 3171 3172 3173 3175 3176 3177 3178 3179 3180 3181 3182 3182 3183 3184 3185 3185 3185 3186 3186 3186 3186 3186 3185 3185 3185 3185 3185 3184 3184 3184
3133 3134 3135 3136 3137 3139 3140 3141 3142 3143 3144 3144 3145 3146 3146 3146 3147 3148 3149 3150 3150 3150 3151 3151 3152 3152 3153 3153 3153 3153 3153 3153 3153 3153 3153 3153 3152 3152 3151 3151 3152 3152 3153 3154 3156 3157 3158 3159 3160 3162 3164 3165 3166 3167 3169 3170 3171 3173 3174 3175 3176 3177 3179 3180 3181 3181 3182 3183 3184 3185 3186 3186 3186 3186 3186 3186 3186 3186 3186 3186 3186 3185 3185 3185 3185
3132 3134 3135 3136 3137 3139 3140 3141 3142 3143 3143 3144 3144 3145 3145 3145 3146 3147 3148 3149 3149 3149 3150 3151 3151 3152 3152 3152 3152 3152 3152 3152 3153 3153 3153 3153 3153 3152 3152 3151 3151 3152 3153 3154 3155 3156 3157 3159 3160 3162 3163 3164 3165 3166 3168 3170 3171 3172 3173 3174 3176 3177 3179 3180 3181 3181 3182 3183 3184 3185 3186 3186 3186 3186 3186 3186 3187 3187 3187 3186 3186 3186 3186 3186 3186
3133 3134 3135 3136 3137 3138 3140 3141 3142 3142 3143 3143 3143 3144 3144 3144 3145 3146 3148 3148 3148 3149 3149 3150 3150 3151 3151 3151 3152 3152 3152 3152 3152 3153 3153 3153 3153 3153 3152 3151 3151 3152 3152 3153 3154 3155 3156 3158 3159 3160 3162 3163 3164 3166 3167 3169 3170 3172 3173 3174 3175 3177 3178 3179 3180 3180 3181 3182 3183 3184 3186 3187 3186 3186 3186 3187 3187 3187 3187 3187 3187 3187 3187 3187 3186
3133 3134 3135 3136 3137 3138 3139 3140 3141 3141 3142 3142 3142 3143 3144 3144 3145 3146 3147 3147 3148 3148 3149 3149 3150 3150 3150 3150 3151 3151 3151 3152 3152 3152 3152 3153 3153 3153 3152 3151 3151 3151 3152 3153 3153 3154 3155 3156 3158 3159 3161 3162 3163 3165 3166 3168 3169 3171 3172 3173 3174 3176 3177 3178 3179 3180 3181 3182 3183 3184 3185 3186 3186 3186 3187 3187 3187 3187 3187 3187 3187 3188 3188 3188 3187
3133 3134 3135 3136 3137 3138 3138 3139 3140 3141 3141 3141 3142 3143 3143 3143 3144 3145 3146 3147 3147 3147 3148 3149 3149 3150 3150 3150 3150 3150 3150 3151 3151 3151 3152 3152 3153 3152 3152 3152 3151 3151 3152 3152 3152 3153 3154 3155 3156 3157 3159 3161 3162 3164 3165 3167 3168 3170 3171 3172 3173 3175 3177 3178 3179 3180 3181 3182 3182 3184 3185 3186 3186 3186 3187 3187 3187 3187 3187 3188 3188 3188 3188 3188 3188
3132 3133 3134 3136 3136 3137 3138 3139 3140 3141 3141 3141 3141 3142 3143 3143 3144 3145 3146 3146 3146 3146 3147 3147 3148 3149 3149 3149 3149 3149 3149 3149 3150 3150 3151 3151 3152 3152 3152 3151 3151 3151 3151 3151 3152 3152 3153 3154 3155 3156 3158 3159 3161 3162 3164 3165 3167 3169 3170 3171 3173 3175 3176 3177 3178 3179 3180 3181 3182 3184 3185 3186 3186 3186 3186 3187 3187 3187 3188 3188 3188 3189 3189 3189 3189
3132 3133 3134 3135 3136 3137 3138 3139 3140 3140 3141 3141 3141 3142 3143 3143 3144 3145 3146 3146 3146 3146 3146 3147 3148 3148 3148 3149 3149 3149 3148 3148 3149 3149 3150 3151 3151 3151 3151 3151 3151 3150 3151 3151 3151 3151 3152 3153 3154 3155 3156 3158 3159 3161 3163 3165 3166 3168 3170 3171 3173 3174 3175 3176 3177 3178 3180 3180 3181 3183 3184 3185 3186 3186 3186 3186 3187 3188 3188 3189 3189 3189 3189 3189 3189
3132 3133 3134 3135 3136 3137 3138 3138 3139 3140 3140 3140 3141 3142 3143 3144 3144 3145 3145 3145 3145 3146 3146 3147 3148 3148 3147 3148 3148 3148 3148 3148 3148 3148 3149 3150 3151 3151 3150 3150 3150 3150 3150 3150 3151 3151 3151 3152 3153 3154 3155 3156 3158 3160 3162 3164 3165 3167 3169 3171 3172 3173 3174 3175 3176 3177 3179 3179 3180 3182 3183 3185 3185 3185 3186 3186 3187 3188 3188 3189 3189 3189 3190 3190 3190
3131 3132 3134 3135 3135 3136 3137 3138 3138 3139 3139 3140 3141 3142 3143 3143 3144 3144 3145 3145 3145 3145 3146 3147 3147 3147 3147 3147 3148 3148 3148 3147 3148 3148 3149 3150 3150 3150 3150 3150 3150 3150 3150 3150 3150 3151 3151 3151 3152 3153 3153 3155 3157 3159 3161 3163 3165 3166 3168 3170 3171 3173 3173 3174 3175 3177 3178 3178 3180 3182 3183 3184 3185 3185 3185 3186 3187 3188 3188 3189 3190 3190 3190 3190 3190
3131 3132 3133 3134 3135 3136 3137 3138 3138 3138 3138 3139 3140 3141 3142 3143 3144 3145 3145 3145 3145 3145 3146 3147 3147 3146 3146 3147 3147 3147 3147 3147 3147 3148 3149 3149 3149 3148 3149 3149 3149 3149 3149 3149 3150 3150 3150 3151 3151 3152 3152 3153 3155 3157 3159 3161 3163 3165 3167 3168 3170 3172 3172 3173 3174 3175 3175 3177 3180 3181 3182 3183 3184 3184 3185 3186 3187 3188 3188 3189 3189 3190 3190 3190 3190
3131 3131 3132 3134 3135 3136 3137 3138 3138 3138 3138 3139 3140 3141 3142 3143 3144 3144 3144 3144 3144 3144 3146 3147 3146 3145 3146 3146 3147 3146 3147 3147 3147 3148 3148 3147 3147 3148 3148 3149 3149 3149 3149 3149 3149 3149 3150 3150 3151 3151 3151 3152 3154 3156 3158 3160 3162 3164 3165 3167 3169 3171 3172 3172 3173 3173 3174 3178 3180 3180 3182 3183 3183 3184 3184 3185 3186 3187 3188 3188 3189 3189 3190 3190 3190
3130 3131 3132 3134 3135 3136 3137 3138 3138 3138 3138 3140 3141 3142 3143 3144 3144 3144 3144 3144 3144 3144 3146 3146 3145 3145 3146 3147 3147 3146 3147 3147 3147 3147 3147 3146 3146 3147 3148 3148 3148 3148 3148 3148 3148 3148 3149 3149 3150 3150 3151 3151 3153 3155 3157 3159 3161 3163 3164 3166 3168 3169 3171 3171 3171 3171 3175 3178 3179 3180 3181 3182 3183 3183 3184 3185 3186 3186 3187 3188 3188 3189 3189 3190 3190
3130 3132 3133 3133 3134 3135 3136 3137 3137 3138 3139 3139 3141 3143 3144 3144 3144 3144 3144 3143 3143 3144 3145 3145 3145 3145 3146 3148 3146 3146 3147 3148 3148 3148 3146 3146 3146 3147 3148 3148 3148 3148 3148 3148 3148 3148 3148 3149 3149 3149 3150 3151 3153 3154 3156 3158 3160 3162 3163 3165 3166 3168 3169 3170 3169 3170 3174 3178 3178 3179 3180 3181 3182 3183 3184 3184 3185 3186 3186 3187 3188 3188 3189 3189 3190
3131 3133 3133 3133 3134 3135 3136 3136 3136 3137 3138 3139 3140 3142 3144 3144 3144 3145 3144 3143 3143 3143 3143 3143 3143 3145 3146 3147 3146 3146 3147 3147 3147 3148 3147 3146 3146 3147 3148 3148 3148 3148 3148 3148 3149 3149 3149 3148 3148 3148 3149 3150 3152 3153 3155 3156 3158 3160 3161 3163 3165 3167 3168 3169 3169 3170 3174 3176 3177 3178 3179 3180 3182 3182 3183 3183 3184 3185 3186 3186 3187 3187 3188 3189 3189
3132 3133 3132 3133 3133 3135 3137 3137 3137 3137 3137 3138 3138 3141 3142 3143 3144 3144 3144 3144 3143 3142 3141 3142 3143 3144 3145 3147 3146 3146 3147 3146 3146 3147 3147 3146 3146 3146 3147 3148 3148 3148 3148 3149 3149 3149 3149 3148 3148 3148 3148 3149 3151 3153 3154 3155 3156 3157 3159 3161 3163 3165 3167 3168 3168 3169 3172 3174 3175 3177 3178 3179 3181 3181 3182 3183 3184 3184 3185 3185 3186 3187 3187 3188 3189
3131 3131 3132 3133 3133 3134 3136 3136 3136 3137 3137 3138 3138 3139 3140 3142 3143 3143 3143 3143 3143 3141 3141 3142 3143 3144 3144 3145 3146 3145 3147 3147 3146 3146 3147 3146 3147 3147 3147 3147 3148 3148 3149 3149 3149 3149 3149 3149 3148 3148 3148 3149 3151 3152 3154 3155 3155 3155 3156 3159 3161 3164 3165 3167 3167 3168 3171 3173 3174 3176 3176 3178 3179 3180 3181 3182 3183 3183 3184 3185 3185 3186 3187 3187 3188
3130 3131 3134 3135 3135 3137 3137 3136 3135 3135 3137 3138 3139 3139 3139 3140 3141 3141 3142 3142 3142 3141 3140 3141 3143 3145 3144 3144 3144 3145 3146 3146 3145 3144 3145 3146 3147 3147 3147 3147 3148 3148 3149 3149 3149 3150 3149 3149 3149 3148 3149 3149 3150 3152 3153 3154 3155 3155 3156 3157 3159 3162 3163 3165 3166 3166 3170 3171 3172 3174 3175 3176 3178 3179 3180 3181 3181 3182 3183 3184 3184 3185 3186 3187 3187
3131 3132 3134 3135 3136 3138 3138 3138 3135 3134 3135 3137 3138 3140 3140 3140 3140 3140 3140 3141 3142 3140 3139 3140 3141 3143 3143 3143 3143 3144 3145 3145 3144 3143 3143 3145 3147 3147 3147 3148 3148 3147 3149 3151 3151 3150 3150 3150 3149 3149 3149 3149 3150 3151 3153 3154 3155 3156 3156 3156 3158 3160 3161 3163 3164 3165 3167 3169 3170 3172 3173 3175 3176 3177 3178 3179 3180 3181 3182 3182 3183 3184 3185 3186 3186
3130 3132 3133 3134 3136 3138 3138 3138 3137 3135 3134 3135 3137 3137 3138 3139 3140 3141 3141 3141 3141 3140 3139 3138 3136 3137 3140 3143 3144 3142 3142 3143 3143 3142 3143 3146 3148 3148 3148 3149 3150 3149 3150 3153 3152 3151 3151 3150 3150 3150 3149 3149 3150 3151 3152 3153 3154 3155 3155 3156 3157 3159 3160 3162 3163 3163 3165 3166 3168 3169 3171 3172 3174 3175 3177 3178 3178 3179 3180 3181 3182 3183 3184 3185 3185
3130 3131 3132 3133 3135 3136 3137 3137 3137 3136 3134 3135 3136 3136 3136 3136 3138 3140 3140 3140 3140 3140 3141 3139 3135 3134 3137 3142 3143 3142 3142 3143 3143 3142 3142 3144 3145 3146 3148 3149 3150 3149 3150 3152 3153 3152 3152 3151 3151 3150 3150 3150 3150 3151 3152 3153 3154 3154 3155 3156 3157 3158 3159 3160 3162 3162 3163 3164 3166 3167 3169 3170 3172 3173 3174 3176 3177 3178 3179 3180 3181 3182 3182 3183 3184
3128 3130 3130 3132 3133 3133 3135 3136 3136 3136 3135 3134 3134 3136 3137 3136 3137 3139 3140 3141 3139 3139 3141 3141 3139 3138 3139 3140 3141 3141 3141 3142 3142 3142 3143 3143 3142 3144 3146 3148 3149 3148 3149 3150 3151 3152 3152 3152 3151 3151 3150 3150 3150 3151 3151 3152 3153 3153 3154 3155 3156 3157 3158 3160 3161 3162 3162 3163 3164 3165 3167 3168 3170 3171 3172 3174 3175 3176 3177 3178 3179 3180 3181 3182 3183
3127 3129 3129 3130 3131 3131 3133 3134 3134 3135 3134 3133 3132 3133 3135 3136 3137 3138 3140 3141 3141 3140 3140 3141 3142 3140 3140 3140 3141 3140 3139 3140 3140 3141 3143 3144 3142 3143 3145 3146 3147 3148 3149 3149 3149 3150 3151 3150 3151 3151 3150 3150 3150 3151 3151 3151 3151 3152 3153 3154 3155 3157 3158 3160 3160 3161 3161 3162 3163 3164 3165 3167 3168 3169 3170 3172 3173 3174 3175 3177 3178 3178 3179 3180 3181
3128 3128 3129 3129 3130 3130 3130 3131 3132 3132 3133 3133 3132 3132 3132 3133 3133 3134 3136 3137 3140 3141 3141 3141 3141 3140 3139 3139 3140 3139 3138 3138 3137 3137 3139 3141 3142 3143 3144 3144 3145 3146 3147 3148 3149 3149 3149 3149 3150 3150 3151 3151 3151 3151 3151 3151 3151 3151 3152 3152 3154 3155 3157 3158 3159 3160 3161 3161 3161 3162 3163 3164 3166 3167 3169 3170 3171 3172 3173 3175 3176 3177 3178 3179 3180
3126 3127 3128 3129 3129 3128 3129 3129 3130 3130 3130 3131 3132 3132 3132 3132 3131 3131 3131 3131 3135 3137 3138 3139 3138 3138 3137 3137 3138 3138 3137 3137 3136 3135 3136 3139 3142 3143 3144 3144 3144 3143 3144 3146 3147 3147 3148 3149 3149 3150 3150 3150 3150 3151 3150 3150 3150 3150 3151 3151 3152 3154 3155 3156 3158 3159 3160 3160 3160 3160 3161 3162 3163 3165 3166 3167 3168 3170 3171 3173 3174 3175 3176 3177 3178
3125 3126 3128 3128 3128 3128 3128 3128 3129 3129 3129 3129 3130 3130 3131 3131 3130 3130 3129 3130 3132 3133 3134 3135 3135 3136 3136 3135 3135 3136 3137 3137 3137 3136 3137 3139 3142 3143 3143 3145 3144 3142 3141 3143 3145 3146 3147 3148 3149 3150 3150 3149 3150 3150 3150 3150 3150 3150 3151 3151 3152 3153 3155 3155 3156 3157 3158 3159 3159 3159 3159 3160 3161 3162 3164 3165 3166 3168 3169 3170 3172 3173 3175 3176 3177
3124 3125 3126 3126 3127 3127 3127 3127 3127 3127 3128 3128 3128 3129 3129 3129 3128 3128 3129 3130 3131 3131 3130 3130 3131 3133 3134 3133 3133 3135 3136 3137 3137 3136 3136 3139 3142 3143 3142 3144 3144 3143 3141 3140 3143 3145 3146 3147 3148 3150 3150 3149 3150 3149 3148 3149 3149 3150 3150 3151 3151 3152 3153 3154 3155 3155 3156 3156 3157 3158 3157 3158 3159 3160 3161 3162 3164 3165 3166 3168 3170 3171 3173 3174 3175
3123 3124 3125 3125 3126 3126 3126 3126 3126 3127 3127 3128 3128 3127 3127 3127 3127 3127 3127 3128 3128 3129 3128 3128 3129 3130 3131 3131 3131 3134 3135 3135 3136 3135 3135 3138 3141 3142 3141 3142 3143 3143 3141 3139 3142 3143 3144 3146 3147 3148 3149 3149 3148 3148 3148 3148 3148 3148 3149 3150 3151 3151 3152 3152 3153 3153 3154 3154 3155 3156 3156 3157 3157 3158 3159 3160 3162 3163 3164 3166 3167 3169 3171 3172 3173
3122 3123 3123 3124 3125 3126 3126 3126 3126 3127 3127 3127 3127 3127 3126 3125 3125 3125 3125 3125 3126 3126 3126 3125 3126 3127 3128 3129 3130 3132 3133 3134 3134 3133 3133 3135 3139 3139 3140 3141 3141 3142 3141 3139 3140 3141 3143 3145 3145 3145 3146 3146 3146 3147 3148 3148 3147 3147 3148 3149 3149 3150 3151 3151 3151 3151 3152 3153 3153 3154 3154 3155 3156 3156 3157 3158 3160 3161 3162 3163 3165 3167 3169 3170 3171
3122 3122 3121 3122 3124 3125 3126 3126 3126 3127 3127 3127 3126 3126 3125 3124 3124 3123 3123 3124 3124 3125 3124 3123 3124 3126 3127 3128 3129 3130 3130 3131 3132 3132 3130 3131 3134 3136 3137 3138 3139 3140 3139 3138 3138 3139 3140 3142 3143 3143 3142 3143 3144 3145 3147 3147 3146 3146 3146 3147 3148 3149 3149 3150 3151 3151 3150 3151 3152 3152 3152 3153 3154 3155 3154 3155 3157 3158 3160 3161 3162 3164 3166 3167 3169
3121 3121 3121 3122 3124 3125 3125 3126 3126 3126 3126 3126 3125 3125 3124 3123 3123 3123 3122 3122 3123 3123 3123 3124 3124 3125 3126 3127 3128 3128 3128 3129 3130 3129 3128 3129 3131 3133 3133 3134 3136 3137 3137 3137 3136 3137 3138 3139 3140 3140 3140 3141 3142 3142 3144 3146 3146 3146 3146 3146 3147 3148 3148 3149 3150 3151 3150 3150 3150 3150 3151 3151 3151 3152 3153 3154 3154 3155 3157 3159 3160 3162 3163 3165 3166
3120 3121 3121 3122 3124 3125 3125 3125 3125 3125 3125 3125 3125 3125 3124 3123 3122 3122 3122 3121 3121 3122 3123 3123 3124 3124 3124 3125 3126 3126 3126 3126 3127 3127 3127 3128 3129 3130 3131 3132 3133 3134 3134 3134 3135 3136 3137 3138 3138 3138 3138 3138 3139 3140 3142 3144 3145 3144 3145 3145 3145 3146 3146 3147 3148 3148 3148 3148 3148 3148 3149 3150 3150 3150 3151 3152 3153 3153 3154 3156 3158 3159 3161 3162 3163
3119 3121 3121 3122 3123 3125 3125 3125 3125 3124 3124 3124 3124 3124 3123 3123 3122 3122 3121 3120 3120 3121 3121 3122 3123 3123 3123 3124 3125 3125 3125 3124 3125 3125 3125 3125 3127 3129 3130 3130 3131 3132 3132 3132 3133 3134 3135 3136 3136 3136 3136 3137 3138 3139 3140 3142 3143 3143 3143 3143 3144 3144 3144 3144 3144 3145 3146 3146 3146 3146 3147 3147 3148 3148 3149 3150 3151 3152 3153 3154 3156 3157 3159 3160 3161
3118 3119 3120 3122 3123 3124 3125 3124 3124 3123 3123 3123 3123 3123 3123 3123 3122 3121 3120 3120 3119 3120 3121 3121 3122 3122 3122 3123 3123 3124 3124 3124 3124 3124 3124 3123 3124 3127 3129 3129 3129 3130 3129 3130 3131 3131 3132 3133 3134 3135 3135 3135 3137 3138 3139 3140 3142 3142 3142 3141 3141 3141 3141 3142 3142 3143 3143 3143 3143 3144 3144 3144 3145 3146 3147 3148 3149 3150 3151 3152 3153 3155 3156 3157 3159
3116 3118 3119 3121 3122 3123 3124 3124 3123 3123 3123 3123 3123 3123 3123 3123 3123 3122 3121 3120 3119 3119 3120 3121 3121 3121 3121 3122 3122 3122 3122 3123 3123 3123 3123 3122 3123 3124 3126 3127 3127 3127 3127 3127 3128 3129 3130 3131 3132 3133 3134 3134 3135 3136 3137 3138 3139 3140 3140 3140 3139 3139 3139 3139 3140 3141 3141 3141 3140 3141 3141 3142 3142 3143 3144 3146 3147 3149 3149 3149 3150 3152 3154 3154 3155
3114 3115 3117 3119 3120 3121 3123 3123 3122 3123 3123 3123 3123 3123 3123 3123 3124 3123 3122 3121 3120 3120 3120 3120 3120 3120 3120 3121 3121 3121 3121 3121 3121 3121 3122 3122 3122 3122 3123 3124 3124 3124 3124 3124 3125 3126 3127 3129 3130 3131 3131 3132 3133 3134 3135 3136 3136 3137 3137 3137 3137 3136 3137 3137 3138 3139 3139 3138 3138 3138 3139 3140 3141 3141 3142 3144 3145 3146 3147 3148 3149 3149 3151 3152 3152
3113 3113 3114 3116 3118 3120 3121 3121 3121 3122 3123 3123 3122 3122 3122 3123 3123 3123 3122 3121 3120 3120 3119 3119 3119 3120 3120 3120 3120 3120 3120 3120 3120 3120 3120 3120 3120 3120 3121 3121 3121 3121 3121 3122 3123 3124 3125 3127 3128 3128 3129 3130 3130 3131 3133 3133 3134 3134 3134 3135 3135 3135 3135 3136 3136 3137 3137 3136 3136 3137 3138 3139 3139 3140 3141 3142 3142 3144 3145 3146 3147 3148 3149 3151 3151
3111 3112 3112 3113 3116 3119 3120 3120 3119 3121 3122 3122 3122 3122 3122 3122 3123 3123 3122 3121 3120 3119 3119 3119 3119 3119 3119 3119 3120 3119 3119 3119 3119 3119 3119 3119 3119 3119 3119 3119 3120 3120 3120 3120 3121 3122 3123 3124 3125 3126 3127 3128 3129 3130 3131 3131 3132 3132 3133 3133 3134 3134 3135 3135 3134 3134 3134 3135 3135 3136 3137 3137 3137 3137 3138 3140 3140 3141 3143 3144 3146 3147 3148 3149 3150
3110 3110 3111 3111 3114 3117 3118 3118 3118 3119 3121 3121 3122 3121 3121 3121 3121 3122 3121 3120 3119 3118 3118 3118 3118 3119 3119 3119 3119 3119 3119 3119 3119 3118 3118 3118 3118 3118 3118 3118 3118 3119 3119 3119 3120 3120 3121 3121 3123 3124 3125 3126 3127 3128 3129 3130 3130 3131 3131 3132 3133 3133 3134 3133 3133 3132 3132 3133 3133 3134 3135 3135 3135 3134 3135 3136 3138 3139 3141 3142 3144 3145 3146 3147 3148
3108 3109 3109 3110 3112 3114 3116 3117 3117 3118 3120 3120 3121 3121 3121 3121 3120 3120 3120 3119 3119 3119 3118 3118 3118 3118 3119 3119 3118 3118 3118 3118 3118 3118 3118 3118 3118 3118 3118 3118 3118 3118 3118 3118 3119 3119 3120 3121 3122 3122 3124 3125 3126 3126 3127 3128 3129 3130 3130 3131 3131 3132 3132 3131 3131 3131 3130 3131 3131 3132 3132 3132 3133 3133 3133 3133 3135 3137 3138 3139 3141 3143 3144 3145 3146
3106 3106 3106 3107 3110 3112 3115 3116 3116 3116 3118 3119 3120 3121 3120 3120 3120 3120 3120 3119 3119 3119 3119 3118 3118 3118 3118 3118 3118 3118 3117 3117 3117 3117 3117 3117 3117 3117 3117 3117 3118 3118 3118 3118 3119 3119 3120 3121 3121 3122 3123 3124 3125 3125 3126 3127 3128 3129 3129 3130 3130 3130 3130 3130 3129 3129 3129 3129 3129 3130 3130 3131 3131 3132 3132 3132 3132 3134 3135 3137 3139 3141 3142 3143 3144
3104 3105 3106 3106 3108 3111 3113 3114 3114 3115 3117 3118 3119 3120 3120 3120 3120 3120 3119 3119 3119 3119 3119 3118 3118 3118 3118 3118 3118 3117 3117 3117 3117 3117 3116 3117 3117 3117 3117 3117 3118 3118 3119 3119 3119 3119 3120 3121 3122 3123 3123 3124 3125 3125 3126 3127 3127 3128 3128 3129 3129 3129 3129 3129 3129 3128 3128 3128 3128 3129 3129 3129 3130 3131 3131 3131 3131 3132 3133 3135 3136 3138 3139 3141 3142
3102 3104 3105 3104 3105 3107 3110 3112 3113 3114 3116 3117 3119 3119 3119 3119 3119 3119 3119 3119 3119 3119 3118 3118 3118 3118 3118 3117 3117 3117 3117 3117 3117 3117 3117 3117 3117 3117 3117 3118 3118 3118 3119 3119 3120 3120 3120 3121 3122 3123 3124 3124 3125 3125 3126 3126 3127 3127 3127 3128 3128 3128 3128 3129 3128 3128 3128 3128 3128 3128 3128 3128 3128 3129 3129 3130 3131 3131 3132 3133 3134 3136 3137 3138 3140